This is the latest recevied weather packets stored in our database for station/object W1LBM. If no packets are shown the sender has not sent any weather packets the latest 10 day(s).
| Time | Temp. | Humidity | Pressure | Rain* | Wind** | Luminosity | Snow |
|---|---|---|---|---|---|---|---|
| 1777909313 | 18.33° C | 34% | 1013.4 hPa | 0 mm | - | 675 W/m² | - |
| 1777909010 | 18.89° C | 36% | 1013 hPa | 0 mm | - | 669 W/m² | - |
| 1777908708 | 18.89° C | 34% | 1013.3 hPa | 0 mm | - | 704 W/m² | - |
| 1777908405 | 18.89° C | 39% | 1013.3 hPa | 0 mm | - | 682 W/m² | - |
| 1777908101 | 18.33° C | 39% | 1013.4 hPa | 0 mm | - | 672 W/m² | - |
| 1777907797 | 18.33° C | 35% | 1013.4 hPa | 0 mm | - | 663 W/m² | - |
| 1777907493 | 17.78° C | 37% | 1013.2 hPa | 0 mm | - | 658 W/m² | - |
| 1777907190 | 17.78° C | 37% | 1013.5 hPa | 0 mm | - | 650 W/m² | - |
| 1777906886 | 17.78° C | 37% | 1013.4 hPa | 0 mm | - | 644 W/m² | - |
| 1777906584 | 17.78° C | 38% | 1013.4 hPa | 0 mm | - | 632 W/m² | - |
| 1777906279 | 17.78° C | 42% | 1013.5 hPa | 0 mm | - | 627 W/m² | - |
| 1777905976 | 17.22° C | 39% | 1013.4 hPa | 0 mm | - | 619 W/m² | - |
| 1777905673 | 17.78° C | 40% | 1013.5 hPa | 0 mm | - | 606 W/m² | - |
| 1777905370 | 17.22° C | 45% | 1013.7 hPa | 0 mm | - | 597 W/m² | - |
| 1777905068 | 17.22° C | 43% | 1013.7 hPa | 0 mm | - | 588 W/m² | - |
| 1777904765 | 17.22° C | 40% | 1013.9 hPa | 0 mm | - | 575 W/m² | - |
| 1777904461 | 17.22° C | 42% | 1014.1 hPa | 0 mm | - | 563 W/m² | - |
| 1777904158 | 17.22° C | 42% | 1014.1 hPa | 0 mm | - | 172 W/m² | - |
| 1777903855 | 16.67° C | 44% | 1014 hPa | 0 mm | - | 546 W/m² | - |
| 1777903552 | 16.67° C | 40% | 1014.2 hPa | 0 mm | - | 497 W/m² | - |
| 1777903248 | 16.67° C | 42% | 1014 hPa | 0 mm | - | 491 W/m² | - |
| 1777902944 | 16.67° C | 43% | 1014.2 hPa | 0 mm | - | 106 W/m² | - |
| 1777902641 | 16.67° C | 43% | 1014 hPa | 0 mm | - | 142 W/m² | - |
| 1777902338 | 16.11° C | 45% | 1014 hPa | 0 mm | - | 78 W/m² | - |
| 1777902035 | 15.56° C | 43% | 1014.1 hPa | 0 mm | - | 97 W/m² | - |
* Rain latest hour (hover to see other rain measurements)
** Current wind speed in m/s (hover to see current wind gust speed)